[Iaude] MPEC U298: 2023 UQ10 [a=1.44,e=0.34,i=4.3,H=27.3]

mpec at marsden.cfa.harvard.edu mpec at marsden.cfa.harvard.edu
Tue Oct 31 11:32:20 EDT 2023


M.P.E.C. 2023-U298                             Issued 2023 October 31, 15:30 UT

     The Minor Planet Electronic Circulars contain information on unusual
         minor planets, routine data on comets and natural satellites,
         and occasional editorial announcements.  They are published
    on behalf of Division F of the International Astronomical Union by the
          Minor Planet Center, Smithsonian Astrophysical Observatory,
                          Cambridge, MA 02138, U.S.A.
			  
             Prepared using the Tamkin Foundation Computer Network

                              MPC at CFA.HARVARD.EDU
            URL https://www.minorplanetcenter.net/    ISSN 1523-6714

                                   2023 UQ10                                    


Observations:
     K23U10Q  C2023 10 22.48977005 24 09.496+22 29 04.87         20.66GVEU298F52
     K23U10Q  C2023 10 22.50065105 23 52.839+22 32 03.75         18.38GVEU298F52
     K23U10Q  C2023 10 22.51151105 23 36.052+22 35 02.51         20.12GVEU298F52
     K23U10Q*1C2023 10 23.38634805 06 22.882+25 46 48.54         20.57GVEU298G96
     K23U10Q 1C2023 10 23.39675605 06 10.436+25 48 45.94         21.43GVEU298G96
     K23U10Q 1C2023 10 23.40194205 06 04.273+25 49 44.69         20.16GVEU298G96
     K23U10Q  C2023 10 23.42836005 05 31.618+25 54 25.67         20.6 GVEU298H01
     K23U10Q  C2023 10 23.43569905 05 23.028+25 55 44.93         20.6 GVEU298H01
     K23U10Q  C2023 10 23.44268005 05 14.873+25 56 59.94         21.5 GVEU298H01
     K23U10Q  C2023 10 23.45025005 05 06.050+25 58 20.88         20.9 GVEU298H01

Observer details:
F52 Pan-STARRS 2, Haleakala.  Observers J. Bulger, T. Lowe, P. Minguez, A.
    Schultz, I. Smith.  Measurers K. Chambers, T. de Boer, J. Fairlamb, H.
    Gao, M. Huber, C.-C. Lin, E. Magnier, Y. Ramanjooloo, R. Wainscoat, R.
    Weryk.  1.8-m Ritchey-Chretien + CCD.
G96 Mt. Lemmon Survey.  Observer J. K. Hogan.  Measurers E. C. Beshore, D.
    Fay, J. B. Fazekas, D. C. Fuls, A. R. Gibbs, A. D. Grauer, H. Groeller, J.
    K. Hogan, R. A. Kowalski, S. M. Larson, G. J. Leonard, D. Rankin, R. L.
    Seaman, F. C. Shelly, K. W. Wierzchos.  1.5-m reflector + 10K CCD.
H01 Magdalena Ridge Observatory, Socorro.  Observers W. H. Ryan, E. V. Ryan.
    Measurer W. H. Ryan.  2.4-m f/8.9 Ritchey-Chretien + CCD.

Orbital elements:
2023 UQ10                                                Earth MOID = 0.0044 AU
Epoch 2023 Sept. 13.0 TT = JDT 2460200.5                Bell                    
M 356.81407              (2000.0)            P               Q                  
n   0.57159995     Peri.  319.26923     +0.98042920     +0.19335565             
a   1.4379416      Node    29.64355     -0.15553429     +0.87608538             
e   0.3429095      Incl.    4.29515     -0.12069662     +0.44168767             
P   1.72           H   27.31          G   0.15           U   8                  
Residuals in seconds of arc
231022 F52  0.2-  0.2-    231023 G96  0.6-  1.1-    231023 H01  0.2+  0.8+
231022 F52  0.7+  0.6-    231023 G96  1.0-  0.3-    231023 H01  0.2+  1.2+
231022 F52  0.5-  0.8+    231023 H01  0.1+  0.4+
231023 G96  1.2+  1.3-    231023 H01  0.2+  0.5+

Ephemeris:
2023 UQ10                a,e,i = 1.44, 0.34, 4                   q = 0.9449
Date    TT    R. A. (2000) Decl.     Delta      r    Elong.  Phase     V
2023 10 01    14 44 13.8 -40 58 13   0.07565 0.9536    49.1   127.5    27.1
...
2023 10 16    11 50 05.0 -43 59 26   0.01492 0.9859    40.6   138.8    24.8
...
2023 10 24    04 56 38.1 +27 27 57   0.02390 1.0116   133.9    45.2    21.0
...
2023 10 30    04 09 08.8 +34 10 08   0.04820 1.0339   146.9    31.7    22.1
2023 10 31    04 05 02.1 +34 35 52   0.05239 1.0379   148.2    30.2    22.3
2023 11 01    04 01 25.1 +34 56 43   0.05660 1.0419   149.5    28.9    22.4
...
2023 11 07    03 46 06.4 +35 59 37   0.08251 1.0671   156.0    22.2    23.1
...
2023 11 15    03 34 14.9 +36 02 23   0.1193  1.1034   161.9    16.2    23.8
...
2023 11 30    03 25 04.0 +34 43 00   0.1989  1.1770   161.9    15.1    25.0

M. P. C. Staff               (C) Copyright 2023 MPC           M.P.E.C. 2023-U298





More information about the Iaude mailing list